,

(GMT )
Forrest Aws

Weather History for 95646 - April, 2014

Change the Weather History Date:

Friday, April 4, 2014

  Actual Average Record
Temperature  
Mean Temperature 62 °F -  
Max Temperature 75 °F - - ()
Min Temperature 50 °F - - ()
Degree Days  
Heating Degree Days 2    
Growing Degree Days 12 (Base 50)    
Moisture  
Dew Point 49 °F    
Average Humidity 66    
Maximum Humidity 100    
Minimum Humidity 21    
Precipitation  
Precipitation 0.00 in - - ()
Sea Level Pressure  
Sea Level Pressure 30.15 in    
Wind  
Wind Speed 11 mph ()    
Max Wind Speed 18 mph    
Max Gust Speed -    
T = Trace of Precipitation, MM = Missing Value Source: Averaged Metar Reports

Daily Weather History Graph

Daily Weather History Graph

Search for Another Location

Airport or City:

Trip Planner

Search our weather history database for the weather conditions in past years. The results will help you decide how hot, cold, wet, or windy it might be!

Date:

Astronomy

Apr. 03, 2014 Rise Set
Actual Time 9:40 PM GMT 9:20 AM GMT
Civil Twilight 9:15 PM GMT 9:44 AM GMT
Nautical Twilight 8:47 PM GMT 10:12 AM GMT
Astronomical Twilight 8:19 PM GMT 10:40 AM GMT
Moon 1:49 AM GMT (4/4) 12:37 PM GMT (4/4)
Length of Visible Light 12h 28m
Length of Day
11h 40m
Waxing Crescent, 24% of the Moon is Illuminated
Apr 4
Waxing Crescent
Apr 7
First Quarter
Apr 15
Full
Apr 22
Last Quarter
Apr 29
New

Hourly Weather History & Observations

Time (GMT) Temp. Dew Point Humidity Pressure Visibility Wind Dir Wind Speed Gust Speed Precip Events Conditions
12:00 AM 62 °F 51 °F 59% 30.23 in - East 10.4 mph - -  
12:00 AM 62.6 °F 51.8 °F 68% 30.24 in - East 10.4 mph - N/A   Unknown
12:30 AM 64.4 °F 50.0 °F 59% 30.24 in - ENE 12.7 mph - N/A   Unknown
1:00 AM 67 °F 48 °F 40% 30.23 in - East 12.7 mph - -  
1:00 AM 66.2 °F 48.2 °F 52% 30.21 in - East 12.7 mph - N/A   Unknown
1:30 AM 68.0 °F 46.4 °F 46% 30.21 in - East 11.5 mph - N/A   Unknown
2:00 AM 68.0 °F 46.4 °F 46% 30.21 in - East 12.7 mph - N/A   Unknown
2:30 AM 69.8 °F 46.4 °F 43% 30.18 in - East 12.7 mph - N/A   Unknown
3:00 AM 72 °F 46 °F 28% 30.18 in - East 10.4 mph - -  
4:00 AM 73 °F 45 °F 25% 30.16 in - ENE 10.4 mph - -  
4:00 AM 73.4 °F 44.6 °F 36% 30.15 in - ENE 10.4 mph - N/A   Unknown
4:30 AM 75.2 °F 44.6 °F 34% 30.15 in - East 11.5 mph - N/A   Unknown
5:00 AM 73.4 °F 44.6 °F 36% 30.12 in - East 8.1 mph - N/A   Unknown
5:30 AM 75.2 °F 44.6 °F 34% 30.12 in - ESE 10.4 mph - N/A   Unknown
6:00 AM 75 °F 44 °F 23% 30.12 in - ESE 9.2 mph - -  
6:00 AM 75.2 °F 44.6 °F 34% 30.12 in - ESE 9.2 mph - N/A   Unknown
6:30 AM 75.2 °F 44.6 °F 34% 30.12 in - ESE 11.5 mph - N/A   Unknown
7:00 AM 75 °F 43 °F 21% 30.11 in - ESE 11.5 mph - -  
7:00 AM 75.2 °F 42.8 °F 31% 30.09 in - ESE 11.5 mph - N/A   Unknown
7:30 AM 75.2 °F 42.8 °F 31% 30.09 in - SE 11.5 mph - N/A   Unknown
8:00 AM 75.2 °F 42.8 °F 31% 30.09 in - East 13.8 mph - N/A   Unknown
8:30 AM 73.4 °F 42.8 °F 33% 30.09 in - East 12.7 mph - N/A   Unknown
9:00 AM 73 °F 43 °F 23% 30.12 in - East 13.8 mph - -  
9:00 AM 73.4 °F 42.8 °F 33% 30.12 in - East 13.8 mph - N/A   Unknown
9:30 AM 71.6 °F 44.6 °F 38% 30.12 in - ESE 11.5 mph - N/A   Unknown
10:00 AM 69 °F 45 °F 31% 30.13 in - ESE 10.4 mph - -  
10:00 AM 69.8 °F 44.6 °F 40% 30.12 in - ESE 10.4 mph - N/A   Unknown
10:30 AM 66.2 °F 50.0 °F 56% 30.12 in - ESE 18.4 mph - N/A   Unknown
11:00 AM 64.4 °F 50.0 °F 59% 30.15 in - SE 16.1 mph - N/A   Unknown
11:30 AM 64.4 °F 51.8 °F 64% 30.15 in - ESE 18.4 mph - N/A   Unknown
12:00 PM 62 °F 53 °F 63% 30.16 in - ESE 17.3 mph - -  
12:00 PM 62.6 °F 51.8 °F 68% 30.15 in - ESE 17.3 mph - N/A   Unknown
12:30 PM 60.8 °F 55.4 °F 82% 30.15 in - ESE 13.8 mph - N/A   Unknown
1:00 PM 60 °F 56 °F 81% 30.16 in - ESE 13.8 mph - -  
1:00 PM 60.8 °F 55.4 °F 82% 30.15 in - ESE 13.8 mph - N/A   Unknown
1:30 PM 59.0 °F 55.4 °F 88% 30.15 in - ESE 12.7 mph - N/A   Unknown
2:00 PM 59.0 °F 51.8 °F 77% 30.15 in - East 12.7 mph - N/A   Unknown
2:30 PM 59.0 °F 51.8 °F 77% 30.15 in - East 11.5 mph - N/A   Unknown
3:00 PM 57 °F 53 °F 83% 30.15 in - East 10.4 mph - -  
3:00 PM 57.2 °F 53.6 °F 88% 30.15 in - East 10.4 mph - N/A   Unknown
3:30 PM 57.2 °F 55.4 °F 94% 30.15 in - East 11.5 mph - N/A   Unknown
4:00 PM 56 °F 55 °F 97% 30.15 in - East 10.4 mph - -  
4:00 PM 57.2 °F 55.4 °F 94% 30.15 in - East 10.4 mph - N/A   Unknown
4:30 PM 55.4 °F 55.4 °F 100% 30.12 in - East 9.2 mph - N/A   Unknown
5:00 PM 53.6 °F 53.6 °F 100% 30.15 in - East 8.1 mph - N/A   Unknown
5:30 PM 53.6 °F 53.6 °F 100% 30.15 in - East 8.1 mph - N/A   Unknown
6:00 PM 53 °F 52 °F 97% 30.14 in - East 8.1 mph - -  
6:00 PM 53.6 °F 51.8 °F 94% 30.12 in - East 8.1 mph - N/A   Unknown
7:00 PM 52 °F 52 °F 99% 30.13 in - East 9.2 mph - -  
7:00 PM 51.8 °F 51.8 °F 100% 30.12 in - East 9.2 mph - N/A   Unknown
7:30 PM 51.8 °F 51.8 °F 100% 30.12 in - East 8.1 mph - N/A   Unknown
8:00 PM 51.8 °F 51.8 °F 100% 30.12 in - East 9.2 mph - N/A   Unknown
8:30 PM 51.8 °F 50.0 °F 94% 30.15 in - East 10.4 mph - N/A   Unknown
9:00 PM 51 °F 51 °F 98% 30.14 in - East 10.4 mph - -  
9:00 PM 51.8 °F 50.0 °F 94% 30.15 in - East 10.4 mph - N/A   Unknown
9:30 PM 50.0 °F 50.0 °F 100% 30.15 in - East 10.4 mph - N/A   Unknown
10:00 PM 51 °F 51 °F 99% 30.15 in - East 10.4 mph - -  
10:00 PM 51.8 °F 50.0 °F 94% 30.15 in - East 10.4 mph - N/A   Unknown
10:30 PM 53.6 °F 53.6 °F 100% 30.15 in - East 12.7 mph - N/A   Unknown
11:00 PM 57.2 °F 55.4 °F 94% 30.15 in - East 17.3 mph - N/A   Unknown
11:30 PM 59.0 °F 50.0 °F 72% 30.15 in - ENE 18.4 mph - N/A   Unknown